Location: USNO
(38.9242°N, 77.0663°W)
Time: 14:56:06
(UTC-05:00)

OTV 5 (USA 277) - Pass Details

Date: 11 October 2017
Orbit: 404 x 417 km, 43.0° (Epoch: 07 September)

Event Time Altitude Azimuth Distance (km) Brightness Sun altitude
Rises 20:28:23 0° 264° (W) 2,350 ? -22.8°
Reaches altitude 10° 20:30:31 10° 269° (W) 1,488 ? -23.2°
Enters shadow 20:33:03 41° 301° (WNW) 615 ? -23.7°
